Location: C�mpuri de-Sus
(45.9500°N, 22.5500°E)
Time: 12:48:55
(UTC+00:00)

Cosmos 1844 - Pass Details

Date: 24 October 2021
Orbit: 822 x 868 km, 70.9° (Epoch: 06 December)

Event Time Altitude Azimuth Distance (km) Brightness Sun altitude
Rises 16:30:00 0° 338° (NNW) 3,463 7.1 -11.4°
Reaches altitude 10° 16:32:43 10° 347° (NNW) 2,519 6.3 -11.8°
Maximum altitude 16:38:01 36° 53° (NE) 1,352 4.4 -12.7°
Enters shadow 16:42:09 15° 113° (ESE) 2,133 5.3 -13.5°
